Torna al catalogo

FENGYUN 1C DEB

LostPO
NORAD 32369·DEBRIS·🇨🇳 China

Lanciato May 10, 1999 da Taiyuan Satellite Launch Center

Loading…

Prossimi Passaggi (prossime 24 ore)

TLE

ObsoletoSource: Space-Track

Epoca: Mar 20, 2012, 12:42 UTC

1 32369U 99025CZN 12080.52920810  .00003817  00000-0  25855-2 0  9992
2 32369  98.3754 187.6885 0433631 243.6489 175.0900 13.63389724222138

Traccia FENGYUN 1C DEB in tempo reale con AllMySat

Download on the App Store